SV2BZQ-2 Weather Reports


time (UTC)temp
F
wind
direction
speed
knots
gust
knots
rain 1hr
in
rain 24hr
in
rain mn
in
humidity
%
barometer
mb
20260507192005 66 129 0.0 1.7 0.00 0.00 0.00 82 1015.5
20260507191843 66 130 0.9 1.7 0.00 0.00 0.00 82 1015.5
20260507191641 66 130 0.9 1.7 0.00 0.00 0.00 82 1015.5
20260507191459 66 129 0.9 1.7 0.00 0.00 0.00 82 1015.5
20260507191352 66 129 0.9 1.7 0.00 0.00 0.00 82 1015.5
20260507191219 67 129 0.9 2.6 0.00 0.00 0.00 82 1015.5
20260507191043 67 129 0.9 2.6 0.00 0.00 0.00 82 1015.5
20260507191000 67 130 0.9 2.6 0.00 0.00 0.00 82 1015.5
20260507190832 67 129 0.9 2.6 0.00 0.00 0.00 82 1015.5
20260507190648 67 129 0.9 2.6 0.00 0.00 0.00 81 1015.5
20260507190224 67 129 0.9 2.6 0.00 0.00 0.00 81 1015.5
20260507190013 67 129 0.0 1.7 0.00 0.00 0.00 81 1015.5
20260507185909 63 315 0.0 1.7 0.00 0.00 0.00 84 1014.1
20260507185817 67 129 0.0 1.7 0.00 0.00 0.00 81 1015.6
20260507185635 67 129 0.0 1.7 0.00 0.00 0.00 81 1015.6
20260507185357 67 129 0.0 1.7 0.00 0.00 0.00 81 1015.6
20260507185232 67 129 0.0 1.7 0.00 0.00 0.00 81 1015.6
20260507185118 67 130 0.0 1.7 0.00 0.00 0.00 81 1015.5
20260507185018 67 129 0.0 1.7 0.00 0.00 0.00 81 1015.5
20260507184911 67 130 0.0 1.7 0.00 0.00 0.00 81 1015.4
20260507184557 67 129 0.0 1.7 0.00 0.00 0.00 81 1015.4
20260507184355 67 129 0.0 1.7 0.00 0.00 0.00 81 1015.4
20260507184158 67 129 0.0 1.7 0.00 0.00 0.00 81 1015.4
20260507183945 67 129 0.0 1.7 0.00 0.00 0.00 81 1015.3
20260507183828 67 129 0.0 1.7 0.00 0.00 0.00 81 1015.3
20260507183740 67 129 0.0 2.6 0.00 0.00 0.00 81 1015.3
20260507183521 67 129 0.9 2.6 0.00 0.00 0.00 81 1015.3
20260507183426 64 315 0.0 0.9 0.00 0.00 0.00 83 1014.2
20260507183324 68 129 0.9 2.6 0.00 0.00 0.00 81 1015.3
20260507183120 68 129 0.9 2.6 0.00 0.00 0.00 81 1015.2
20260507182924 68 129 0.9 2.6 0.00 0.00 0.00 81 1015.2
20260507182833 68 114 0.9 2.6 0.00 0.00 0.00 81 1015.2
20260507182729 68 101 0.9 2.6 0.00 0.00 0.00 81 1015.2
20260507182542 68 106 0.0 1.7 0.00 0.00 0.00 81 1015.2
20260507182425 68 107 0.0 1.7 0.00 0.00 0.00 81 1015.2
20260507182353 68 106 0.0 1.7 0.00 0.00 0.00 81 1015.2
20260507182213 68 107 0.0 1.7 0.00 0.00 0.00 80 1015.2
20260507182040 68 84 0.0 1.7 0.00 0.00 0.00 80 1015.2
20260507182003 68 119 0.0 0.9 0.00 0.00 0.00 80 1015.2
20260507181917 68 119 0.0 0.9 0.00 0.00 0.00 80 1015.2
20260507181737 68 119 0.0 0.0 0.00 0.00 0.00 80 1015.2
20260507181617 68 119 0.0 0.0 0.00 0.00 0.00 80 1015.2
20260507181603 68 118 0.0 0.0 0.00 0.00 0.00 80 1015.2
20260507181424 68 119 0.0 1.7 0.00 0.00 0.00 79 1015.2
20260507181258 69 118 0.0 1.7 0.00 0.00 0.00 80 1015.1
20260507180927 69 118 0.0 1.7 0.00 0.00 0.00 79 1015.1
20260507180748 69 119 0.0 1.7 0.00 0.00 0.00 79 1015.2
20260507180414 69 119 0.9 1.7 0.00 0.00 0.00 79 1015.0
20260507180230 69 118 0.9 1.7 0.00 0.00 0.00 78 1015.0
20260507175659 69 163 0.9 1.7 0.00 0.00 0.00 78 1015.0
20260507175518 69 163 0.9 1.7 0.00 0.00 0.00 77 1015.0
20260507175414 69 163 0.9 1.7 0.00 0.00 0.00 77 1015.0
20260507175351 69 163 0.9 1.7 0.00 0.00 0.00 77 1015.0
20260507175217 69 163 0.9 1.7 0.00 0.00 0.00 77 1015.2
20260507175050 69 163 0.9 1.7 0.00 0.00 0.00 76 1015.1
20260507174642 69 163 0.9 1.7 0.00 0.00 0.00 76 1015.1
20260507174435 69 163 0.9 3.5 0.00 0.00 0.00 75 1015.1
20260507174312 69 163 0.9 3.5 0.00 0.00 0.00 75 1015.1
20260507174239 70 163 0.0 3.5 0.00 0.00 0.00 75 1015.1
20260507174033 70 163 0.9 3.5 0.00 0.00 0.00 75 1015.1
20260507173841 70 163 0.9 3.5 0.00 0.00 0.00 75 1015.2
20260507173653 70 163 0.9 3.5 0.00 0.00 0.00 75 1015.2
20260507173450 70 178 0.9 3.5 0.00 0.00 0.00 75 1015.3
20260507173409 70 167 1.7 3.5 0.00 0.00 0.00 74 1015.2
20260507173303 70 173 1.7 3.5 0.00 0.00 0.00 74 1015.2
20260507173140 70 213 1.7 3.5 0.00 0.00 0.00 74 1014.9
20260507172959 70 224 1.7 3.5 0.00 0.00 0.00 73 1014.9
20260507172940 70 231 1.7 3.5 0.00 0.00 0.00 73 1014.9
20260507172819 70 216 1.7 3.5 0.00 0.00 0.00 73 1014.8
20260507172604 70 237 1.7 3.5 0.00 0.00 0.00 72 1014.7
20260507172153 70 202 0.9 2.6 0.00 0.00 0.00 72 1014.5
20260507172002 70 136 0.9 2.6 0.00 0.00 0.00 71 1014.4
20260507171819 70 103 0.9 2.6 0.00 0.00 0.00 71 1014.5
20260507171754 70 115 0.9 2.6 0.00 0.00 0.00 70 1014.5
20260507171554 70 86 0.9 2.6 0.00 0.00 0.00 70 1014.5
20260507171339 70 92 0.0 2.6 0.00 0.00 0.00 70 1014.5
20260507171310 71 87 0.0 1.7 0.00 0.00 0.00 70 1014.6
20260507171203 71 217 0.0 0.9 0.00 0.00 0.00 69 1014.6
20260507170937 71 217 0.0 0.9 0.00 0.00 0.00 69 1014.7
20260507170805 71 217 0.0 0.0 0.00 0.00 0.00 69 1014.7
20260507170735 71 217 0.0 0.9 0.00 0.00 0.00 69 1014.7
20260507170600 71 217 0.0 0.9 0.00 0.00 0.00 69 1014.8
20260507170356 71 217 0.0 0.9 0.00 0.00 0.00 69 1014.9
20260507170326 71 217 0.0 0.9 0.00 0.00 0.00 69 1014.9
20260507170139 71 217 0.0 0.9 0.00 0.00 0.00 69 1015.0
20260507170006 71 217 0.0 0.9 0.00 0.00 0.00 69 1015.1
20260507165743 71 217 0.0 0.9 0.00 0.00 0.00 69 1015.0
20260507165625 71 217 0.0 0.9 0.00 0.00 0.00 69 1015.0
20260507165421 71 217 0.0 0.0 0.00 0.00 0.00 68 1015.1
20260507165328 71 217 0.0 0.0 0.00 0.00 0.00 68 1015.1
20260507165232 71 217 0.0 0.0 0.00 0.00 0.00 69 1015.1
20260507165041 71 217 0.0 0.0 0.00 0.00 0.00 69 1015.1
20260507164920 71 217 0.0 0.0 0.00 0.00 0.00 69 1015.1
20260507164736 71 217 0.0 0.0 0.00 0.00 0.00 68 1015.2
20260507164323 71 240 0.0 0.0 0.00 0.00 0.00 68 1015.1
20260507164255 71 240 0.0 0.0 0.00 0.00 0.00 68 1015.1
20260507164106 71 240 0.0 0.0 0.00 0.00 0.00 68 1015.1
20260507163904 71 240 0.0 0.0 0.00 0.00 0.00 68 1015.1
20260507163757 67 192 0.0 1.7 0.00 0.00 0.00 78 1013.1
20260507163736 71 240 0.0 0.0 0.00 0.00 0.00 68 1015.0
20260507163707 71 240 0.0 0.0 0.00 0.00 0.00 68 1015.0
20260507163516 71 240 0.0 0.9 0.00 0.00 0.00 68 1015.0
20260507163348 67 168 0.9 4.3 0.00 0.00 0.00 77 1012.7
20260507163310 71 240 0.0 0.9 0.00 0.00 0.00 68 1015.0
20260507163238 71 240 0.0 0.9 0.00 0.00 0.00 68 1015.0
20260507163124 71 240 0.0 0.9 0.00 0.00 0.00 68 1015.0
20260507162928 71 240 0.0 1.7 0.00 0.00 0.00 68 1015.1
20260507162847 71 240 0.0 2.6 0.00 0.00 0.00 68 1015.2
20260507162810 71 240 0.0 2.6 0.00 0.00 0.00 68 1015.2
20260507162646 71 240 0.9 2.6 0.00 0.00 0.00 68 1015.1
20260507162246 71 240 0.9 2.6 0.00 0.00 0.00 68 1015.0
20260507162123 71 240 0.9 2.6 0.00 0.00 0.00 68 1015.2
20260507161937 71 240 0.9 2.6 0.00 0.00 0.00 68 1015.3
20260507161903 71 240 0.9 3.5 0.00 0.00 0.00 68 1015.3
20260507161825 71 240 0.9 3.5 0.00 0.00 0.00 69 1015.3
20260507161705 71 240 1.7 3.5 0.00 0.00 0.00 69 1015.4
20260507161501 71 240 1.7 3.5 0.00 0.00 0.00 69 1015.4
20260507161453 71 240 1.7 3.5 0.00 0.00 0.00 69 1015.4
20260507161325 71 226 1.7 3.5 0.00 0.00 0.00 69 1015.4
20260507161126 71 261 1.7 3.5 0.00 0.00 0.00 69 1015.5
20260507160746 71 236 1.7 3.5 0.00 0.00 0.00 69 1015.5
20260507160609 71 222 0.9 3.5 0.00 0.00 0.00 68 1015.5
20260507160452 71 235 0.9 2.6 0.00 0.00 0.00 68 1015.3
20260507160439 71 220 0.9 2.6 0.00 0.00 0.00 68 1015.3
20260507160316 71 269 0.9 1.7 0.00 0.00 0.00 68 1015.3
20260507160143 71 268 0.9 1.7 0.00 0.00 0.00 68 1015.2
20260507155805 71 269 0.0 1.7 0.00 0.00 0.00 68 1015.2
20260507155637 71 269 0.9 1.7 0.00 0.00 0.00 68 1015.2
20260507155232 71 268 0.0 1.7 0.00 0.00 0.00 68 1015.1
20260507155045 71 336 0.9 1.7 0.00 0.00 0.00 68 1015.0
20260507154917 71 336 0.9 2.6 0.00 0.00 0.00 68 1015.0
20260507154841 71 346 0.9 2.6 0.00 0.00 0.00 68 1014.9
20260507154735 71 343 0.9 2.6 0.00 0.00 0.00 68 1014.9
20260507154545 71 321 0.9 2.6 0.00 0.00 0.00 68 1015.1
20260507154442 71 309 1.7 2.6 0.00 0.00 0.00 68 1015.2
20260507154422 71 309 1.7 2.6 0.00 0.00 0.00 68 1015.2
20260507154210 71 350 1.7 2.6 0.00 0.00 0.00 68 1015.4
20260507154031 71 269 1.7 3.5 0.00 0.00 0.00 68 1015.4
20260507153653 71 267 1.7 3.5 0.00 0.00 0.00 68 1015.3
20260507153504 71 333 1.7 3.5 0.00 0.00 0.00 67 1015.2
20260507153357 71 346 1.7 5.2 0.00 0.00 0.00 67 1015.4
20260507153315 71 319 1.7 5.2 0.00 0.00 0.00 67 1015.4
20260507153148 71 334 2.6 5.2 0.00 0.00 0.00 67 1015.5
20260507153000 71 314 1.7 5.2 0.00 0.00 0.00 67 1015.4
20260507152945 71 279 1.7 5.2 0.00 0.00 0.00 67 1015.4
20260507152814 71 323 2.6 5.2 0.00 0.00 0.00 67 1015.5
20260507152616 71 289 2.6 5.2 0.00 0.00 0.00 67 1015.7
20260507152237 71 271 2.6 5.2 0.00 0.00 0.00 67 1015.7
20260507152105 71 283 2.6 5.2 0.00 0.00 0.00 67 1015.7
20260507151940 71 222 2.6 4.3 0.00 0.00 0.00 67 1015.7
20260507151927 71 237 2.6 4.3 0.00 0.00 0.00 67 1015.7
20260507151809 71 230 2.6 4.3 0.00 0.00 0.00 67 1015.7
20260507151619 71 227 2.6 4.3 0.00 0.00 0.00 67 1015.7
20260507151517 71 233 2.6 5.2 0.00 0.00 0.00 67 1015.7
20260507151349 71 215 1.7 5.2 0.00 0.00 0.00 67 1015.8
20260507151200 71 273 1.7 5.2 0.00 0.00 0.00 68 1015.8
20260507150948 71 246 1.7 5.2 0.00 0.00 0.00 68 1015.8
20260507150926 71 241 1.7 5.2 0.00 0.00 0.00 68 1015.8
20260507150750 71 288 1.7 5.2 0.00 0.00 0.00 68 1015.7
20260507150617 72 272 1.7 5.2 0.00 0.00 0.00 68 1015.7
20260507150205 72 273 0.9 3.5 0.00 0.00 0.00 68 1015.7
20260507145901 72 298 1.7 3.5 0.00 0.00 0.00 68 1015.6
20260507145730 72 348 1.7 3.5 0.00 0.00 0.00 68 1015.6
20260507145701 72 290 1.7 3.5 0.00 0.00 0.00 68 1015.6
20260507145451 72 306 1.7 3.5 0.00 0.00 0.00 68 1015.4
20260507145308 72 323 1.7 3.5 0.00 0.00 0.00 68 1015.5
20260507145230 72 305 1.7 3.5 0.00 0.00 0.00 68 1015.6
20260507145123 72 237 1.7 3.5 0.00 0.00 0.00 68 1015.6
20260507144919 72 238 1.7 3.5 0.00 0.00 0.00 68 1015.7
20260507144715 72 272 1.7 3.5 0.00 0.00 0.00 68 1015.7
20260507144635 72 291 1.7 3.5 0.00 0.00 0.00 68 1015.6
20260507144441 72 290 0.9 3.5 0.00 0.00 0.00 68 1015.6
20260507144245 72 290 1.7 3.5 0.00 0.00 0.00 68 1015.7
20260507144221 72 290 1.7 4.3 0.00 0.00 0.00 68 1015.7
20260507144051 72 288 1.7 4.3 0.00 0.00 0.00 69 1015.7
20260507143851 72 248 1.7 4.3 0.00 0.00 0.00 69 1015.7
20260507143726 72 254 1.7 4.3 0.00 0.00 0.00 69 1015.7
20260507143649 72 254 2.6 5.2 0.00 0.00 0.00 69 1015.7
20260507143520 72 219 2.6 5.2 0.00 0.00 0.00 68 1015.7
20260507143348 72 211 2.6 5.2 0.00 0.00 0.00 69 1015.7
20260507143326 72 259 2.6 5.2 0.00 0.00 0.00 69 1015.7
20260507143135 72 327 2.6 5.2 0.00 0.00 0.00 68 1015.7
20260507142956 72 286 2.6 5.2 0.00 0.00 0.00 68 1015.7
20260507142829 72 279 2.6 5.2 0.00 0.00 0.00 68 1015.7
20260507142803 72 341 2.6 5.2 0.00 0.00 0.00 69 1015.6
20260507142637 72 263 2.6 5.2 0.00 0.00 0.00 69 1015.6
20260507142446 72 300 1.7 3.5 0.00 0.00 0.00 69 1015.6
20260507142426 72 278 1.7 3.5 0.00 0.00 0.00 69 1015.6
20260507142313 72 319 2.6 3.5 0.00 0.00 0.00 69 1015.6
20260507142146 72 317 2.6 6.1 0.00 0.00 0.00 69 1015.6
20260507142055 72 336 2.6 6.1 0.00 0.00 0.00 69 1015.7
20260507141959 72 275 2.6 6.1 0.00 0.00 0.00 69 1015.6
20260507141743 72 310 2.6 6.1 0.00 0.00 0.00 69 1015.6
20260507141540 72 253 2.6 6.1 0.00 0.00 0.00 69 1015.6
20260507141116 72 288 2.6 6.1 0.00 0.00 0.00 69 1015.6
20260507140924 72 338 2.6 6.1 0.00 0.00 0.00 69 1015.6
20260507140824 71 267 2.6 6.1 0.00 0.00 0.00 69 1015.6
20260507140647 71 281 2.6 7.0 0.00 0.00 0.00 69 1015.6
20260507140503 71 263 2.6 7.0 0.00 0.00 0.00 69 1015.7
20260507140159 71 268 2.6 7.0 0.00 0.00 0.00 68 1015.6
20260507140151 71 298 2.6 7.0 0.00 0.00 0.00 68 1015.6
20260507135954 71 298 2.6 7.0 0.00 0.00 0.00 68 1015.6
20260507135803 71 265 2.6 7.0 0.00 0.00 0.00 69 1015.5
20260507135723 71 313 2.6 7.0 0.00 0.00 0.00 70 1015.5
20260507135632 71 283 2.6 5.2 0.00 0.00 0.00 70 1015.5
20260507135425 71 273 2.6 5.2 0.00 0.00 0.00 70 1015.6
20260507135149 71 322 2.6 5.2 0.00 0.00 0.00 70 1015.6
20260507135004 71 325 2.6 5.2 0.00 0.00 0.00 71 1015.6
20260507134830 71 0 2.6 5.2 0.00 0.00 0.00 71 1015.6
20260507134746 71 19 2.6 5.2 0.00 0.00 0.00 71 1015.6
20260507134656 70 350 2.6 6.1 0.00 0.00 0.00 71 1015.6
20260507134500 70 331 3.5 7.0 0.00 0.00 0.00 72 1015.6
20260507134243 70 331 3.5 7.0 0.00 0.00 0.00 72 1015.6
20260507134234 70 341 3.5 7.0 0.00 0.00 0.00 72 1015.6
20260507134010 70 317 2.6 7.0 0.00 0.00 0.00 72 1015.5
20260507133759 70 336 2.6 7.0 0.00 0.00 0.00 72 1015.5
20260507133704 70 307 2.6 7.0 0.00 0.00 0.00 72 1015.6
20260507133537 70 15 2.6 7.0 0.00 0.00 0.00 73 1015.6
20260507133431 69 173 1.7 3.5 0.00 0.00 0.00 73 1012.4
20260507133340 70 336 1.7 6.1 0.00 0.00 0.00 73 1015.6
20260507133202 70 22 1.7 6.1 0.00 0.00 0.00 73 1015.6
20260507133001 70 311 1.7 6.1 0.00 0.00 0.00 73 1015.6
20260507132803 70 355 1.7 5.2 0.00 0.00 0.00 73 1015.6
20260507132723 69 25 2.6 5.2 0.00 0.00 0.00 73 1015.6
20260507132624 69 57 2.6 5.2 0.00 0.00 0.00 73 1015.5
20260507132414 69 55 2.6 5.2 0.00 0.00 0.00 73 1015.6
20260507132255 69 36 2.6 5.2 0.00 0.00 0.00 73 1015.5
20260507132230 69 315 2.6 6.1 0.00 0.00 0.00 73 1015.5
20260507132115 69 336 2.6 6.1 0.00 0.00 0.00 73 1015.6
20260507131851 69 69 2.6 6.1 0.00 0.00 0.00 73 1015.5
20260507131826 69 80 2.6 6.1 0.00 0.00 0.00 73 1015.5
20260507131722 69 32 2.6 6.1 0.00 0.00 0.00 73 1015.6
20260507131522 69 96 2.6 6.1 0.00 0.00 0.00 73 1015.6
20260507131109 69 87 1.7 6.1 0.00 0.00 0.00 73 1015.6
20260507130912 69 65 1.7 5.2 0.00 0.00 0.00 73 1015.6
20260507130720 68 72 1.7 5.2 0.00 0.00 0.00 74 1015.8
20260507130648 68 336 1.7 5.2 0.00 0.00 0.00 74 1015.8
20260507130512 68 89 1.7 5.2 0.00 0.00 0.00 74 1015.8
20260507130318 68 40 0.9 5.2 0.00 0.00 0.00 74 1015.7
20260507130141 68 67 0.9 5.2 0.00 0.00 0.00 74 1015.7
20260507130023 71 219 1.7 4.3 0.00 0.00 0.00 70 1012.5
20260507125855 68 128 0.9 4.3 0.00 0.00 0.00 74 1015.8
20260507125716 72 142 2.6 7.0 0.00 0.00 0.00 69 1012.5
20260507125632 68 24 1.7 6.1 0.00 0.00 0.00 74 1015.9
20260507125454 68 71 1.7 6.1 0.00 0.00 0.00 74 1015.8
20260507125317 68 60 1.7 6.1 0.00 0.00 0.00 74 1015.9
20260507125227 68 60 1.7 6.1 0.00 0.00 0.00 74 1015.9
20260507125139 68 87 1.7 6.1 0.00 0.00 0.00 74 1015.9
20260507125017 68 99 2.6 7.0 0.00 0.00 0.00 74 1016.0
20260507124856 68 123 2.6 8.7 0.00 0.00 0.00 74 1016.0
20260507124437 68 129 3.5 9.6 0.00 0.00 0.00 74 1015.9
20260507124313 68 232 3.5 9.6 0.00 0.00 0.00 74 1015.8
20260507124225 68 232 4.3 9.6 0.00 0.00 0.00 74 1015.5
20260507124150 67 65 4.3 9.6 0.00 0.00 0.00 73 1015.6
20260507124024 67 114 4.3 9.6 0.00 0.00 0.00 74 1015.6
20260507123833 67 74 4.3 9.6 0.00 0.00 0.00 74 1015.7
20260507123714 67 84 4.3 9.6 0.00 0.00 0.00 74 1015.9
20260507123515 67 48 4.3 9.6 0.00 0.00 0.00 74 1015.9
20260507123443 67 84 4.3 8.7 0.00 0.00 0.00 75 1016.1
20260507123343 67 40 4.3 8.7 0.00 0.00 0.00 75 1016.1
20260507123220 67 107 3.5 8.7 0.00 0.00 0.00 75 1016.3
20260507123116 67 89 3.5 8.7 0.00 0.00 0.00 76 1016.2
20260507123055 67 98 3.5 8.7 0.00 0.00 0.00 76 1016.2
20260507122850 67 82 2.6 7.8 0.00 0.00 0.00 77 1016.3
20260507122705 67 91 2.6 5.2 0.00 0.00 0.00 78 1016.4
20260507122622 66 67 2.6 5.2 0.00 0.00 0.00 79 1016.4
20260507122456 66 86 2.6 5.2 0.00 0.00 0.00 79 1016.4
20260507122251 66 80 1.7 5.2 0.00 0.00 0.00 80 1016.6
20260507122037 67 85 0.9 5.2 0.00 0.00 0.00 81 1016.4
20260507122020 67 90 0.9 5.2 0.00 0.00 0.00 81 1016.4
20260507121839 67 68 0.9 5.2 0.00 0.00 0.00 82 1016.7
20260507121636 67 113 0.0 1.7 0.00 0.00 0.00 83 1016.7
20260507121157 66 188 0.0 1.7 0.00 0.00 0.00 83 1016.7
20260507120952 66 188 0.0 1.7 0.00 0.00 0.00 82 1016.7
20260507120834 66 92 0.0 0.9 0.00 0.00 0.00 82 1016.7
20260507120819 66 0 0.0 0.9 0.00 0.00 0.00 82 1016.7
20260507120612 66 0 0.0 0.9 0.00 0.00 0.00 82 1016.7
20260507120445 66 5 0.0 1.7 0.00 0.00 0.00 82 1016.7
20260507120014 66 69 0.0 1.7 0.00 0.00 0.00 82 1016.7
20260507115814 66 71 0.9 1.7 0.00 0.00 0.00 81 1016.7
20260507115629 66 71 0.9 1.7 0.00 0.00 0.00 81 1016.7
20260507115559 66 71 0.9 2.6 0.00 0.00 0.00 81 1016.7
20260507115542 73 188 3.5 8.7 0.00 0.00 0.00 66 1012.6
20260507115416 66 24 0.9 3.5 0.00 0.00 0.00 81 1016.8
20260507115221 74 219 2.6 8.7 0.00 0.00 0.00 63 1012.6
20260507115147 66 64 0.9 3.5 0.00 0.00 0.00 81 1016.7
20260507115120 66 355 0.9 3.5 0.00 0.00 0.00 81 1016.7
20260507115050 75 227 3.5 9.6 0.00 0.00 0.00 63 1012.7
20260507114958 66 37 0.9 3.5 0.00 0.00 0.00 80 1016.7
20260507114931 75 168 3.5 7.0 0.00 0.00 0.00 62 1012.6
20260507114859 75 176 4.3 7.0 0.00 0.00 0.00 61 1012.7
20260507114750 66 0 1.7 3.5 0.00 0.00 0.00 80 1016.7
20260507114735 76 210 3.5 8.7 0.00 0.00 0.00 60 1012.7
20260507114718 76 161 4.3 9.6 0.00 0.00 0.00 60 1012.8
20260507114618 66 23 1.7 4.3 0.00 0.00 0.00 80 1016.9
20260507114543 66 18 1.7 4.3 0.00 0.00 0.00 80 1016.9
20260507114451 76 206 5.2 11.3 0.00 0.00 0.00 61 1012.8
20260507114337 66 14 1.7 4.3 0.00 0.00 0.00 80 1017.0
20260507114316 77 202 5.2 12.2 0.00 0.00 0.00 60 1012.8
20260507114109 66 342 2.6 4.3 0.00 0.00 0.00 80 1017.0
20260507113933 66 320 2.6 4.3 0.00 0.00 0.00 80 1017.1
20260507113741 66 323 2.6 7.0 0.00 0.00 0.00 80 1017.1
20260507113636 66 332 3.5 7.0 0.00 0.00 0.00 80 1017.1
20260507113605 66 322 3.5 7.0 0.00 0.00 0.00 80 1017.1
20260507113425 66 346 3.5 7.0 0.00 0.00 0.00 79 1017.2
20260507113251 66 40 3.5 7.0 0.00 0.00 0.00 79 1017.2
20260507113218 66 318 3.5 7.0 0.00 0.00 0.00 79 1017.2
20260507113115 66 0 3.5 7.0 0.00 0.00 0.00 79 1017.4
20260507112735 66 318 3.5 6.1 0.00 0.00 0.00 79 1017.5
20260507112611 66 322 2.6 6.1 0.00 0.00 0.00 79 1017.4
20260507112533 66 282 2.6 6.1 0.00 0.00 0.00 79 1017.4
20260507112337 66 327 2.6 5.2 0.00 0.00 0.00 79 1017.5
20260507112329 79 203 4.3 9.6 0.00 0.00 0.00 54 1013.2
20260507112149 66 327 2.6 5.2 0.00 0.00 0.00 79 1017.4
20260507112114 66 340 2.6 5.2 0.00 0.00 0.00 79 1017.4
20260507111935 67 333 2.6 4.3 0.00 0.00 0.00 79 1017.5
20260507111732 67 304 2.6 4.3 0.00 0.00 0.00 79 1017.5
20260507111607 67 329 2.6 4.3 0.00 0.00 0.00 80 1017.5
20260507111532 67 331 2.6 4.3 0.00 0.00 0.00 80 1017.5
20260507111325 67 310 2.6 4.3 0.00 0.00 0.00 80 1017.5
20260507111218 80 205 2.6 7.8 0.00 0.00 0.00 45 1013.7
20260507111141 67 338 2.6 4.3 0.00 0.00 0.00 79 1017.5
20260507111114 67 337 2.6 4.3 0.00 0.00 0.00 79 1017.5
20260507111021 80 113 3.5 7.8 0.00 0.00 0.00 45 1013.8
20260507110950 79 195 3.5 7.8 0.00 0.00 0.00 46 1013.8
20260507110925 67 334 2.6 4.3 0.00 0.00 0.00 79 1017.5
20260507110731 67 355 1.7 4.3 0.00 0.00 0.00 80 1017.5
20260507110616 67 268 1.7 3.5 0.00 0.00 0.00 79 1017.5
20260507110529 67 329 1.7 3.5 0.00 0.00 0.00 79 1017.5
20260507110342 67 291 1.7 3.5 0.00 0.00 0.00 79 1017.4
20260507110157 67 342 1.7 3.5 0.00 0.00 0.00 79 1017.5
20260507110141 67 295 1.7 3.5 0.00 0.00 0.00 79 1017.5
20260507110022 67 322 1.7 3.5 0.00 0.00 0.00 78 1017.4
20260507105906 67 321 1.7 3.5 0.00 0.00 0.00 78 1017.4
20260507105817 68 273 1.7 3.5 0.00 0.00 0.00 78 1017.3
20260507105741 68 314 1.7 3.5 0.00 0.00 0.00 77 1017.3
20260507105605 68 300 1.7 4.3 0.00 0.00 0.00 77 1017.3
20260507105432 68 296 1.7 5.2 0.00 0.00 0.00 77 1017.3
20260507105422 68 332 2.6 5.2 0.00 0.00 0.00 77 1017.3
20260507105310 68 332 2.6 5.2 0.00 0.00 0.00 76 1017.3
20260507105200 68 332 2.6 5.2 0.00 0.00 0.00 76 1017.3
20260507105122 68 332 2.6 5.2 0.00 0.00 0.00 76 1017.3
20260507105039 68 279 2.6 5.2 0.00 0.00 0.00 76 1017.3
20260507104901 68 323 2.6 5.2 0.00 0.00 0.00 76 1017.2
20260507104723 68 307 2.6 4.3 0.00 0.00 0.00 76 1017.2
20260507104712 68 321 2.6 4.3 0.00 0.00 0.00 76 1017.2
20260507104554 68 319 2.6 4.3 0.00 0.00 0.00 75 1017.2
20260507104435 69 5 2.6 4.3 0.00 0.00 0.00 75 1017.2
20260507104039 69 324 2.6 4.3 0.00 0.00 0.00 75 1017.2
20260507103850 69 325 2.6 4.3 0.00 0.00 0.00 75 1017.3
20260507103727 69 322 2.6 5.2 0.00 0.00 0.00 75 1017.3
20260507103720 69 310 2.6 5.2 0.00 0.00 0.00 75 1017.3
20260507103606 69 335 2.6 5.2 0.00 0.00 0.00 75 1017.3
20260507103436 69 355 2.6 5.2 0.00 0.00 0.00 75 1017.3
20260507103359 69 342 2.6 5.2 0.00 0.00 0.00 74 1017.2
20260507103318 69 317 2.6 5.2 0.00 0.00 0.00 74 1017.2
20260507103137 69 297 2.6 5.2 0.00 0.00 0.00 74 1017.2
20260507102939 69 317 2.6 5.2 0.00 0.00 0.00 73 1017.2
20260507102922 69 284 2.6 5.2 0.00 0.00 0.00 73 1017.2
20260507102754 70 265 2.6 5.2 0.00 0.00 0.00 73 1017.1
20260507102630 70 277 2.6 5.2 0.00 0.00 0.00 72 1017.1
20260507102539 70 301 2.6 5.2 0.00 0.00 0.00 72 1017.1
20260507102448 70 259 2.6 6.1 0.00 0.00 0.00 72 1017.1
20260507102320 70 290 2.6 6.1 0.00 0.00 0.00 71 1017.1
20260507102213 70 284 2.6 6.1 0.00 0.00 0.00 71 1017.1
20260507102156 70 317 2.6 6.1 0.00 0.00 0.00 71 1017.1
20260507102025 70 292 3.5 6.1 0.00 0.00 0.00 71 1017.2
20260507101833 70 308 2.6 6.1 0.00 0.00 0.00 70 1017.2
20260507101730 70 292 2.6 6.1 0.00 0.00 0.00 70 1017.2
20260507101642 70 283 2.6 6.1 0.00 0.00 0.00 70 1017.2
20260507101508 70 325 2.6 6.1 0.00 0.00 0.00 69 1017.2
20260507101342 70 265 2.6 6.1 0.00 0.00 0.00 69 1017.2
20260507101321 70 282 2.6 6.1 0.00 0.00 0.00 69 1017.2
20260507101158 70 323 1.7 4.3 0.00 0.00 0.00 69 1017.2
20260507101023 70 284 1.7 4.3 0.00 0.00 0.00 69 1017.2
20260507100955 70 269 1.7 4.3 0.00 0.00 0.00 69 1017.2
20260507100908 70 286 1.7 4.3 0.00 0.00 0.00 69 1017.2
20260507100733 70 330 1.7 4.3 0.00 0.00 0.00 69 1017.2
20260507100611 70 330 1.7 3.5 0.00 0.00 0.00 69 1017.1
20260507100541 70 311 1.7 3.5 0.00 0.00 0.00 70 1017.1
20260507100331 70 311 1.7 3.5 0.00 0.00 0.00 69 1017.1
20260507100159 70 334 1.7 4.3 0.00 0.00 0.00 69 1017.1
20260507100125 70 333 1.7 4.3 0.00 0.00 0.00 69 1017.1
20260507100011 70 279 1.7 4.3 0.00 0.00 0.00 69 1017.1
20260507095620 70 241 1.7 4.3 0.00 0.00 0.00 69 1017.1
20260507095206 70 221 1.7 4.3 0.00 0.00 0.00 69 1017.1
20260507095029 70 221 1.7 4.3 0.00 0.00 0.00 69 1017.1
20260507094845 70 230 1.7 3.5 0.00 0.00 0.00 69 1017.1
20260507094813 70 272 1.7 3.5 0.00 0.00 0.00 69 1017.1
20260507094714 70 228 0.9 3.5 0.00 0.00 0.00 70 1017.1
20260507094534 70 254 0.9 3.5 0.00 0.00 0.00 70 1017.1
20260507094409 70 244 0.9 3.5 0.00 0.00 0.00 70 1017.0
20260507094355 70 244 0.9 3.5 0.00 0.00 0.00 70 1017.1
20260507094242 70 271 0.9 3.5 0.00 0.00 0.00 70 1017.0
20260507094130 70 296 1.7 3.5 0.00 0.00 0.00 69 1017.0
20260507093738 70 273 0.9 3.5 0.00 0.00 0.00 69 1017.0
20260507093602 70 255 0.9 3.5 0.00 0.00 0.00 69 1016.9
20260507093432 70 255 0.9 3.5 0.00 0.00 0.00 69 1016.7
20260507093341 70 212 0.9 3.5 0.00 0.00 0.00 69 1016.7
20260507093158 70 229 0.9 2.6 0.00 0.00 0.00 69 1016.7
20260507092959 70 229 0.9 3.5 0.00 0.00 0.00 69 1016.6
20260507092933 70 229 0.9 3.5 0.00 0.00 0.00 69 1016.6
20260507092756 70 229 0.9 3.5 0.00 0.00 0.00 70 1016.4
20260507092615 70 229 0.9 3.5 0.00 0.00 0.00 70 1016.3
20260507092504 70 227 0.9 3.5 0.00 0.00 0.00 70 1016.3
20260507092434 70 226 0.9 3.5 0.00 0.00 0.00 70 1016.3
20260507092230 70 219 0.9 3.5 0.00 0.00 0.00 70 1016.3
20260507092058 70 227 0.9 1.7 0.00 0.00 0.00 70 1016.2
20260507092019 70 227 0.9 1.7 0.00 0.00 0.00 70 1016.2
20260507091913 70 227 0.9 1.7 0.00 0.00 0.00 71 1016.2
20260507091732 70 227 0.9 1.7 0.00 0.00 0.00 71 1016.2
20260507091625 70 227 0.0 1.7 0.00 0.00 0.00 71 1016.2
20260507091552 70 227 0.0 1.7 0.00 0.00 0.00 71 1016.2
20260507091425 70 170 0.0 1.7 0.00 0.00 0.00 71 1016.2
20260507091224 70 169 0.0 1.7 0.00 0.00 0.00 72 1016.2
20260507091040 70 169 0.0 1.7 0.00 0.00 0.00 72 1016.0
20260507090853 69 170 0.0 1.7 0.00 0.00 0.00 72 1016.0
20260507090759 69 170 0.0 2.6 0.00 0.00 0.00 72 1016.0
20260507090723 69 169 0.0 2.6 0.00 0.00 0.00 72 1016.0
20260507090546 69 170 0.9 2.6 0.00 0.00 0.00 72 1016.0
20260507090329 69 169 0.9 2.6 0.00 0.00 0.00 72 1016.1
20260507090149 70 169 0.9 2.6 0.00 0.00 0.00 73 1016.1
20260507085956 70 215 0.9 2.6 0.00 0.00 0.00 73 1016.2
20260507085908 70 176 0.9 2.6 0.00 0.00 0.00 73 1016.2
20260507085649 70 169 0.9 2.6 0.00 0.00 0.00 73 1016.2
20260507085529 70 225 0.9 2.6 0.00 0.00 0.00 73 1016.2
20260507085351 70 188 0.9 2.6 0.00 0.00 0.00 73 1016.2
20260507085204 70 188 0.9 3.5 0.00 0.00 0.00 74 1016.2
20260507084936 70 168 0.9 3.5 0.00 0.00 0.00 74 1016.1
20260507084811 70 168 0.9 3.5 0.00 0.00 0.00 74 1016.1
20260507084653 70 168 0.9 3.5 0.00 0.00 0.00 74 1016.0
20260507084506 70 168 0.9 3.5 0.00 0.00 0.00 74 1015.9
20260507084246 70 168 0.9 3.5 0.00 0.00 0.00 73 1015.9
20260507084120 70 168 0.0 1.7 0.00 0.00 0.00 73 1015.9
20260507083931 70 168 0.9 2.6 0.00 0.00 0.00 73 1015.9
20260507083853 70 168 0.9 3.5 0.00 0.00 0.00 73 1015.8
20260507083748 70 168 0.9 3.5 0.00 0.00 0.00 73 1015.8
20260507083622 70 168 0.9 3.5 0.00 0.00 0.00 73 1015.7
20260507083438 70 136 0.9 3.5 0.00 0.00 0.00 73 1015.7
20260507083309 70 136 0.9 3.5 0.00 0.00 0.00 73 1015.7
20260507083123 69 157 0.9 3.5 0.00 0.00 0.00 72 1015.7
20260507083052 69 173 0.9 2.6 0.00 0.00 0.00 72 1015.7
20260507082931 69 159 0.9 3.5 0.00 0.00 0.00 72 1015.7
20260507082744 69 173 0.9 3.5 0.00 0.00 0.00 72 1015.7
20260507082533 69 186 0.9 3.5 0.00 0.00 0.00 72 1015.7
20260507082502 69 186 0.9 3.5 0.00 0.00 0.00 72 1015.7
20260507082225 69 185 0.9 3.5 0.00 0.00 0.00 72 1015.8
20260507081952 69 210 0.9 3.5 0.00 0.00 0.00 72 1015.8
20260507081852 69 203 0.9 3.5 0.00 0.00 0.00 72 1015.8
20260507081737 69 196 0.9 3.5 0.00 0.00 0.00 72 1015.7
20260507081620 69 183 1.7 3.5 0.00 0.00 0.00 73 1015.7
20260507081344 69 183 1.7 3.5 0.00 0.00 0.00 73 1015.7
20260507081229 69 183 1.7 3.5 0.00 0.00 0.00 72 1015.7
20260507081041 69 225 1.7 3.5 0.00 0.00 0.00 73 1015.6
20260507081002 69 194 1.7 3.5 0.00 0.00 0.00 73 1015.6
20260507080902 69 190 1.7 3.5 0.00 0.00 0.00 73 1015.6
20260507080725 69 133 0.9 3.5 0.00 0.00 0.00 73 1015.6
20260507080535 69 140 0.9 3.5 0.00 0.00 0.00 73 1015.6
20260507080326 69 198 0.9 3.5 0.00 0.00 0.00 73 1015.5
20260507080105 69 171 0.9 3.5 0.00 0.00 0.00 73 1015.3
20260507080008 69 192 0.9 3.5 0.00 0.00 0.00 73 1015.3
20260507075839 69 169 0.0 3.5 0.00 0.00 0.00 73 1015.3
20260507075645 69 168 0.0 1.7 0.00 0.00 0.00 73 1015.3
20260507075426 69 168 0.9 1.7 0.00 0.00 0.00 73 1015.3
20260507075413 69 168 0.9 1.7 0.00 0.00 0.00 74 1015.3
20260507075208 69 168 0.9 1.7 0.00 0.00 0.00 73 1015.3
20260507074932 68 168 0.9 1.7 0.00 0.00 0.00 74 1015.2
20260507074842 68 168 0.9 1.7 0.00 0.00 0.00 74 1015.2
20260507074731 68 160 0.9 1.7 0.00 0.00 0.00 74 1015.1
20260507074553 68 113 0.9 2.6 0.00 0.00 0.00 74 1015.0
20260507074418 68 71 0.9 2.6 0.00 0.00 0.00 74 1015.0
20260507074327 68 69 0.9 2.6 0.00 0.00 0.00 74 1015.0
20260507074122 68 69 0.9 2.6 0.00 0.00 0.00 74 1015.0
20260507073858 68 70 0.9 2.6 0.00 0.00 0.00 74 1014.9
20260507073826 68 98 0.9 2.6 0.00 0.00 0.00 74 1015.0
20260507073652 68 99 0.9 2.6 0.00 0.00 0.00 74 1015.0
20260507073543 68 57 0.0 2.6 0.00 0.00 0.00 75 1015.0
20260507073055 68 79 0.0 2.6 0.00 0.00 0.00 75 1015.0
20260507072849 68 81 0.9 2.6 0.00 0.00 0.00 75 1015.0
20260507072656 68 355 0.9 2.6 0.00 0.00 0.00 75 1015.1
20260507072255 68 345 0.9 3.5 0.00 0.00 0.00 75 1015.2
20260507072101 68 343 1.7 3.5 0.00 0.00 0.00 75 1015.3
20260507071854 68 343 1.7 3.5 0.00 0.00 0.00 75 1015.3
20260507071830 68 343 1.7 3.5 0.00 0.00 0.00 75 1015.3
20260507071624 68 322 1.7 3.5 0.00 0.00 0.00 76 1015.4
20260507071359 68 306 0.9 3.5 0.00 0.00 0.00 76 1015.3
20260507071328 68 242 0.9 3.5 0.00 0.00 0.00 77 1015.3
20260507071228 68 227 0.9 3.5 0.00 0.00 0.00 77 1015.4
20260507071104 68 228 0.9 3.5 0.00 0.00 0.00 77 1015.3
20260507070721 67 34 0.9 3.5 0.00 0.00 0.00 78 1015.3
20260507070516 67 263 0.9 3.5 0.00 0.00 0.00 79 1015.3
20260507070348 67 263 0.9 3.5 0.00 0.00 0.00 79 1015.3
20260507070305 67 263 0.9 3.5 0.00 0.00 0.00 79 1015.3
20260507070204 67 175 0.9 3.5 0.00 0.00 0.00 80 1015.4
20260507070025 67 246 0.9 1.7 0.00 0.00 0.00 80 1015.3
20260507065926 67 246 0.9 2.6 0.00 0.00 0.00 80 1015.3
20260507065901 67 246 0.9 2.6 0.00 0.00 0.00 80 1015.3
20260507065724 66 246 0.9 2.6 0.00 0.00 0.00 81 1015.3
20260507065606 66 246 0.9 2.6 0.00 0.00 0.00 81 1015.3
20260507065542 66 246 0.9 3.5 0.00 0.00 0.00 81 1015.4
20260507065443 66 202 0.9 3.5 0.00 0.00 0.00 80 1015.3
20260507065313 66 202 0.9 3.5 0.00 0.00 0.00 81 1015.4
20260507065157 66 191 0.9 3.5 0.00 0.00 0.00 81 1015.4
20260507065127 66 242 0.9 3.5 0.00 0.00 0.00 81 1015.4
20260507064937 66 234 0.9 3.5 0.00 0.00 0.00 81 1015.5
20260507064810 66 206 0.9 2.6 0.00 0.00 0.00 82 1015.5
20260507064728 66 219 0.9 2.6 0.00 0.00 0.00 82 1015.5
20260507064607 66 221 0.9 2.6 0.00 0.00 0.00 82 1015.4
20260507064413 65 232 0.9 2.6 0.00 0.00 0.00 82 1015.4
20260507064313 65 303 0.9 2.6 0.00 0.00 0.00 82 1015.4
20260507064242 65 303 0.9 2.6 0.00 0.00 0.00 82 1015.4
20260507064111 65 286 0.9 2.6 0.00 0.00 0.00 82 1015.4
20260507063948 65 269 0.9 3.5 0.00 0.00 0.00 82 1015.4
20260507063922 65 269 0.9 3.5 0.00 0.00 0.00 82 1015.4
20260507063711 65 194 1.7 3.5 0.00 0.00 0.00 82 1015.4
20260507063536 65 245 1.7 3.5 0.00 0.00 0.00 82 1015.3
20260507063415 65 245 1.7 3.5 0.00 0.00 0.00 82 1015.3
20260507063334 65 279 1.7 3.5 0.00 0.00 0.00 83 1015.3
20260507063125 65 214 1.7 4.3 0.00 0.00 0.00 83 1015.4
20260507062921 65 271 1.7 4.3 0.00 0.00 0.00 83 1015.3
20260507062905 65 271 1.7 4.3 0.00 0.00 0.00 83 1015.3
20260507062722 65 204 1.7 4.3 0.00 0.00 0.00 83 1015.3
20260507062553 65 254 1.7 4.3 0.00 0.00 0.00 83 1015.3
20260507062502 65 233 1.7 4.3 0.00 0.00 0.00 84 1015.3
20260507062403 65 217 1.7 4.3 0.00 0.00 0.00 84 1015.3
20260507062226 65 238 1.7 3.5 0.00 0.00 0.00 84 1015.3
20260507062048 64 253 1.7 3.5 0.00 0.00 0.00 85 1015.2
20260507062024 64 254 1.7 3.5 0.00 0.00 0.00 85 1015.2
20260507061851 64 227 1.7 3.5 0.00 0.00 0.00 85 1015.2
20260507061707 64 226 0.9 3.5 0.00 0.00 0.00 86 1015.1
20260507061601 64 229 0.9 3.5 0.00 0.00 0.00 86 1015.1
20260507061504 64 229 0.9 3.5 0.00 0.00 0.00 86 1015.1
20260507061321 64 229 0.9 3.5 0.00 0.00 0.00 87 1015.0
20260507060928 64 218 0.9 2.6 0.00 0.00 0.00 87 1015.0
20260507060710 63 218 0.9 2.6 0.00 0.00 0.00 87 1015.1
20260507060506 63 217 0.9 2.6 0.00 0.00 0.00 88 1015.0
20260507060435 63 218 0.9 2.6 0.00 0.00 0.00 88 1015.0
20260507060334 63 229 0.9 2.6 0.00 0.00 0.00 88 1015.0
20260507060145 63 186 0.9 2.6 0.00 0.00 0.00 88 1015.1
20260507060012 62 178 0.9 2.6 0.00 0.00 0.00 89 1015.0
20260507055827 62 178 0.9 2.6 0.00 0.00 0.00 89 1015.0
20260507055701 62 178 0.9 2.6 0.00 0.00 0.00 89 1015.1
20260507055248 62 167 0.9 3.5 0.00 0.00 0.00 89 1015.0
20260507055057 61 225 0.9 3.5 0.00 0.00 0.00 89 1015.0
20260507054952 61 225 1.7 3.5 0.00 0.00 0.00 89 1015.1
20260507054928 61 225 1.7 3.5 0.00 0.00 0.00 89 1015.1
20260507054752 61 225 1.7 3.5 0.00 0.00 0.00 89 1015.2
20260507054631 61 236 1.7 3.5 0.00 0.00 0.00 89 1015.2
20260507054607 61 237 0.9 3.5 0.00 0.00 0.00 90 1015.2
20260507054504 60 236 0.9 3.5 0.00 0.00 0.00 90 1015.2
20260507054334 60 238 0.9 3.5 0.00 0.00 0.00 90 1015.1
20260507054157 60 237 0.0 1.7 0.00 0.00 0.00 90 1015.1
20260507054136 60 211 0.0 0.0 0.00 0.00 0.00 90 1015.1
20260507054001 60 211 0.0 0.0 0.00 0.00 0.00 90 1014.9
20260507053817 59 210 0.0 0.0 0.00 0.00 0.00 90 1014.9
20260507053750 59 211 0.0 0.0 0.00 0.00 0.00 91 1014.9
20260507053538 59 211 0.0 0.0 0.00 0.00 0.00 90 1014.9
20260507053419 59 211 0.0 0.0 0.00 0.00 0.00 91 1015.0
20260507053246 59 211 0.0 0.0 0.00 0.00 0.00 91 1015.0
20260507053134 59 211 0.0 0.0 0.00 0.00 0.00 91 1015.0
20260507052924 58 211 0.0 0.0 0.00 0.00 0.00 91 1015.0
20260507052754 58 211 0.0 0.0 0.00 0.00 0.00 91 1015.0
20260507052738 58 211 0.0 0.0 0.00 0.00 0.00 90 1015.0
20260507052610 58 307 0.0 0.0 0.00 0.00 0.00 90 1015.0
20260507052443 57 309 0.0 0.0 0.00 0.00 0.00 91 1014.9
20260507052351 57 308 0.0 0.0 0.00 0.00 0.00 91 1014.9
20260507052328 57 308 0.0 0.0 0.00 0.00 0.00 91 1014.9
20260507052114 57 308 0.0 0.0 0.00 0.00 0.00 90 1014.9
20260507051909 57 309 0.0 0.0 0.00 0.00 0.00 90 1014.9
20260507051823 57 308 0.0 0.0 0.00 0.00 0.00 90 1014.9
20260507051645 56 309 0.0 0.0 0.00 0.00 0.00 90 1014.9
20260507051512 56 308 0.0 0.0 0.00 0.00 0.00 90 1014.9
20260507051059 56 308 0.0 0.0 0.00 0.00 0.00 90 1014.9
20260507050659 56 307 0.0 0.0 0.00 0.00 0.00 90 1014.9
20260507050209 56 308 0.0 0.0 0.00 0.00 0.00 90 1014.9
20260507045956 56 308 0.0 0.0 0.00 0.00 0.00 91 1014.8
20260507045556 56 307 0.0 0.0 0.00 0.00 0.00 90 1014.8
20260507045421 55 307 0.0 0.0 0.00 0.00 0.00 91 1014.8
20260507045150 55 309 0.0 0.0 0.00 0.00 0.00 91 1014.9
20260507045110 55 309 0.0 0.0 0.00 0.00 0.00 91 1014.9
20260507044930 55 308 0.0 0.0 0.00 0.00 0.00 90 1014.8
20260507044802 55 308 0.0 0.0 0.00 0.00 0.00 90 1014.8
20260507044721 55 308 0.0 0.0 0.00 0.00 0.00 90 1014.8
20260507044639 55 309 0.0 0.0 0.00 0.00 0.00 90 1014.8
20260507044454 55 309 0.0 0.0 0.00 0.00 0.00 90 1014.8
20260507044213 54 307 0.0 0.0 0.00 0.00 0.00 90 1014.8
20260507044146 54 308 0.0 0.0 0.00 0.00 0.00 90 1014.8
20260507043853 54 309 0.0 0.0 0.00 0.00 0.00 90 1014.8
20260507043645 54 308 0.0 0.0 0.00 0.00 0.00 90 1014.8
20260507043531 54 307 0.0 0.9 0.00 0.00 0.00 90 1014.8
20260507043418 54 309 0.0 1.7 0.00 0.00 0.00 90 1014.7
20260507043238 54 309 0.0 1.7 0.00 0.00 0.00 90 1014.7
20260507043033 54 308 0.9 1.7 0.00 0.00 0.00 89 1014.7
20260507042851 54 307 0.9 1.7 0.00 0.00 0.00 89 1014.7
20260507042619 54 307 0.9 1.7 0.00 0.00 0.00 89 1014.7
20260507042228 54 308 0.9 1.7 0.00 0.00 0.00 89 1014.7
20260507042022 54 308 0.9 1.7 0.00 0.00 0.00 89 1014.7
20260507041901 54 308 0.9 2.6 0.00 0.00 0.00 89 1014.8
20260507041652 54 308 0.9 2.6 0.00 0.00 0.00 89 1014.7
20260507041523 54 309 1.7 2.6 0.00 0.00 0.00 89 1014.7
20260507041427 54 309 1.7 2.6 0.00 0.00 0.00 89 1014.8
20260507041333 54 309 1.7 2.6 0.00 0.00 0.00 89 1014.8
20260507041155 54 318 1.7 2.6 0.00 0.00 0.00 89 1014.7
20260507041037 54 324 1.7 2.6 0.00 0.00 0.00 89 1014.7
20260507040637 54 345 1.7 3.5 0.00 0.00 0.00 89 1014.6
20260507040525 54 325 1.7 3.5 0.00 0.00 0.00 89 1014.6
20260507040444 54 309 1.7 3.5 0.00 0.00 0.00 89 1014.6
20260507040359 54 326 1.7 3.5 0.00 0.00 0.00 89 1014.6
20260507040140 54 294 1.7 3.5 0.00 0.00 0.00 89 1014.6
20260507040010 54 298 1.7 3.5 0.00 0.00 0.00 89 1014.6
20260507035944 54 333 1.7 3.5 0.00 0.00 0.00 89 1014.6
20260507035819 54 296 1.7 2.6 0.00 0.00 0.00 89 1014.6
20260507035632 54 293 0.9 2.6 0.00 0.00 0.00 89 1014.5
20260507035559 54 293 0.9 2.6 0.00 0.00 0.00 89 1014.5
20260507035442 54 291 0.9 2.6 0.00 0.00 0.00 89 1014.4
20260507035309 54 273 0.9 2.6 0.00 0.00 0.00 89 1014.4
20260507035102 54 287 0.9 2.6 0.00 0.00 0.00 89 1014.4
20260507035043 54 288 0.9 2.6 0.00 0.00 0.00 89 1014.4
20260507034843 54 318 0.9 1.7 0.00 0.00 0.00 89 1014.3
20260507034702 54 318 0.9 1.7 0.00 0.00 0.00 89 1014.3
20260507034556 54 318 0.9 1.7 0.00 0.00 0.00 89 1014.3
20260507034507 54 318 0.9 0.9 0.00 0.00 0.00 89 1014.2
20260507034354 54 318 0.9 1.7 0.00 0.00 0.00 89 1014.2
20260507033946 54 319 0.9 1.7 0.00 0.00 0.00 92 1014.2
20260507033814 54 318 0.9 2.6 0.00 0.00 0.00 92 1014.2
20260507033658 54 318 1.7 2.6 0.00 0.00 0.00 89 1014.2
20260507033626 54 318 1.7 2.6 0.00 0.00 0.00 89 1014.2
20260507033517 54 318 1.7 2.6 0.00 0.00 0.00 89 1014.2
20260507033321 54 318 1.7 2.6 0.00 0.00 0.00 89 1014.2
20260507033110 54 318 1.7 2.6 0.00 0.00 0.00 89 1014.2
20260507032618 54 318 1.7 2.6 0.00 0.00 0.00 89 1014.3
20260507032110 54 319 1.7 2.6 0.00 0.00 0.00 89 1014.3
20260507032008 54 310 1.7 2.6 0.00 0.00 0.00 89 1014.3
20260507031912 54 336 1.7 2.6 0.00 0.00 0.00 89 1014.3
20260507031732 54 300 1.7 2.6 0.00 0.00 0.00 89 1014.3
20260507031557 54 303 1.7 2.6 0.00 0.00 0.00 89 1014.3
20260507031529 54 314 1.7 2.6 0.00 0.00 0.00 89 1014.3
20260507031233 54 304 1.7 2.6 0.00 0.00 0.00 89 1014.3
20260507031016 54 307 1.7 3.5 0.00 0.00 0.00 89 1014.3
20260507030938 54 318 1.7 3.5 0.00 0.00 0.00 89 1014.3
20260507030801 54 309 1.7 3.5 0.00 0.00 0.00 89 1014.3
20260507030539 54 314 1.7 3.5 0.00 0.00 0.00 89 1014.3
20260507030311 54 311 1.7 3.5 0.00 0.00 0.00 89 1014.3
20260507030243 54 323 1.7 3.5 0.00 0.00 0.00 89 1014.3
20260507030059 54 285 0.9 3.5 0.00 0.00 0.00 89 1014.4
20260507025821 54 304 0.9 3.5 0.00 0.00 0.00 89 1014.4
20260507025728 54 286 0.9 3.5 0.00 0.00 0.00 89 1014.3
20260507025541 54 280 0.9 3.5 0.00 0.00 0.00 89 1014.3
20260507025324 54 290 0.9 2.6 0.00 0.00 0.00 89 1014.2
20260507025107 54 290 1.7 2.6 0.00 0.00 0.00 89 1014.2
20260507025024 54 290 1.7 3.5 0.00 0.00 0.00 89 1014.2
20260507024754 54 290 1.7 3.5 0.00 0.00 0.00 89 1014.1
20260507024450 55 333 1.7 3.5 0.00 0.00 0.00 89 1014.1
20260507024429 55 332 1.7 3.5 0.00 0.00 0.00 89 1014.1
20260507024204 55 321 1.7 3.5 0.00 0.00 0.00 89 1014.0
20260507023855 55 326 1.7 3.5 0.00 0.00 0.00 89 1014.1
20260507023625 55 304 1.7 3.5 0.00 0.00 0.00 89 1014.0
20260507023503 55 307 1.7 3.5 0.00 0.00 0.00 89 1014.0
20260507023219 55 338 1.7 3.5 0.00 0.00 0.00 89 1014.0
20260507022939 55 314 1.7 3.5 0.00 0.00 0.00 89 1014.1
20260507022921 55 302 1.7 3.5 0.00 0.00 0.00 89 1014.1
20260507022717 55 304 1.7 3.5 0.00 0.00 0.00 89 1014.0
20260507022541 55 276 0.9 3.5 0.00 0.00 0.00 89 1014.0
20260507022434 55 313 0.9 3.5 0.00 0.00 0.00 89 1014.0
20260507022341 55 294 0.9 2.6 0.00 0.00 0.00 89 1014.0
20260507022139 55 274 0.9 2.6 0.00 0.00 0.00 89 1014.0
20260507021949 55 298 0.9 3.5 0.00 0.00 0.00 89 1014.0
20260507021929 55 295 0.9 3.5 0.00 0.00 0.00 89 1014.0
20260507021811 55 295 1.7 3.5 0.00 0.00 0.00 89 1013.9
20260507021620 55 295 1.7 3.5 0.00 0.00 0.00 89 1013.9
20260507021502 55 285 2.6 3.5 0.00 0.00 0.00 89 1013.9
20260507021415 55 284 2.6 3.5 0.00 0.00 0.00 92 1014.0
20260507021210 55 300 2.6 3.5 0.00 0.00 0.00 90 1014.1
20260507020759 55 324 2.6 3.5 0.00 0.00 0.00 90 1014.1
20260507020749 55 333 2.6 3.5 0.00 0.00 0.00 90 1014.1
20260507020550 55 306 2.6 4.3 0.00 0.00 0.00 90 1014.0
20260507020350 55 322 2.6 4.3 0.00 0.00 0.00 90 1014.1
20260507020254 55 314 2.6 4.3 0.00 0.00 0.00 90 1014.0
20260507020202 55 293 2.6 4.3 0.00 0.00 0.00 90 1014.0
20260507020018 55 299 2.6 4.3 0.00 0.00 0.00 90 1014.1
20260507015852 55 290 2.6 4.3 0.00 0.00 0.00 90 1014.0
20260507015847 55 281 2.6 4.3 0.00 0.00 0.00 90 1014.0
20260507015721 55 333 2.6 4.3 0.00 0.00 0.00 90 1014.1
20260507015345 55 326 2.6 4.3 0.00 0.00 0.00 89 1014.0
20260507015245 55 310 2.6 4.3 0.00 0.00 0.00 90 1014.0
20260507015143 55 338 2.6 4.3 0.00 0.00 0.00 90 1014.0
20260507014942 55 325 2.6 4.3 0.00 0.00 0.00 90 1014.0
20260507014909 78 119 2.6 7.8 0.00 0.00 0.00 48 1014.1
20260507014749 55 294 2.6 5.2 0.00 0.00 0.00 90 1014.1
20260507014617 56 288 2.6 5.2 0.00 0.00 0.00 90 1014.1
20260507014439 56 308 2.6 5.2 0.00 0.00 0.00 90 1014.1
20260507014344 56 312 2.6 5.2 0.00 0.00 0.00 90 1014.1
20260507014258 56 336 2.6 5.2 0.00 0.00 0.00 90 1014.1
20260507014133 56 309 2.6 5.2 0.00 0.00 0.00 90 1014.0
20260507014010 56 292 2.6 5.2 0.00 0.00 0.00 90 1014.1
20260507013849 56 325 3.5 6.1 0.00 0.00 0.00 90 1014.1
20260507013727 56 300 3.5 6.1 0.00 0.00 0.00 90 1014.0
20260507013334 56 315 3.5 6.1 0.00 0.00 0.00 90 1013.9
20260507013215 56 350 3.5 6.1 0.00 0.00 0.00 90 1013.9
20260507013050 56 331 3.5 7.0 0.00 0.00 0.00 90 1013.9
20260507012712 56 295 4.3 7.0 0.00 0.00 0.00 90 1013.9
20260507012536 56 323 4.3 7.8 0.00 0.00 0.00 90 1013.9
20260507012146 56 321 4.3 7.8 0.00 0.00 0.00 90 1013.9
20260507012131 78 114 3.5 7.8 0.00 0.00 0.00 49 1014.1
20260507012026 77 197 2.6 6.1 0.00 0.00 0.00 52 1014.1
20260507011938 56 334 4.3 7.8 0.00 0.00 0.00 89 1013.9
20260507011813 56 309 4.3 7.8 0.00 0.00 0.00 89 1013.9
20260507011804 56 317 4.3 7.8 0.00 0.00 0.00 89 1013.9
20260507011633 56 321 4.3 7.8 0.00 0.00 0.00 89 1013.9
20260507011456 56 311 4.3 7.0 0.00 0.00 0.00 89 1013.9
20260507011416 56 314 4.3 7.0 0.00 0.00 0.00 89 1014.0
20260507011326 56 309 3.5 7.0 0.00 0.00 0.00 89 1014.0
20260507011147 56 321 3.5 7.0 0.00 0.00 0.00 89 1013.9
20260507010746 56 319 3.5 7.0 0.00 0.00 0.00 89 1014.0
20260507010735 56 326 3.5 7.0 0.00 0.00 0.00 89 1014.0
20260507010542 56 316 3.5 7.0 0.00 0.00 0.00 89 1014.0
20260507010335 56 339 3.5 7.0 0.00 0.00 0.00 89 1014.0
20260507010244 56 311 3.5 7.0 0.00 0.00 0.00 89 1014.0
20260507010146 56 314 3.5 7.0 0.00 0.00 0.00 89 1014.0
20260507005943 56 343 3.5 7.0 0.00 0.00 0.00 89 1014.0
20260507005823 56 304 3.5 7.0 0.00 0.00 0.00 89 1014.0
20260507005711 56 290 3.5 6.1 0.00 0.00 0.00 89 1013.9
20260507005531 56 327 2.6 6.1 0.00 0.00 0.00 89 1014.0
20260507005443 56 318 2.6 5.2 0.00 0.00 0.00 89 1013.9
20260507005133 56 294 2.6 5.2 0.00 0.00 0.00 89 1013.9
20260507005117 68 281 0.9 2.6 0.00 0.00 0.00 67 1014.1
20260507004935 56 319 2.6 5.2 0.00 0.00 0.00 89 1013.9
20260507004747 56 295 2.6 3.5 0.00 0.00 0.00 89 1013.8
20260507004629 56 296 2.6 3.5 0.00 0.00 0.00 89 1013.8
20260507004510 56 314 1.7 3.5 0.00 0.00 0.00 88 1013.8
20260507004403 56 331 1.7 3.5 0.00 0.00 0.00 88 1013.8
20260507004324 56 311 1.7 3.5 0.00 0.00 0.00 88 1013.8
20260507003939 56 321 1.7 3.5 0.00 0.00 0.00 88 1013.7
20260507003806 56 308 1.7 3.5 0.00 0.00 0.00 88 1013.7
20260507003656 56 339 1.7 5.2 0.00 0.00 0.00 88 1013.7
20260507003530 56 313 2.6 5.2 0.00 0.00 0.00 88 1013.6
20260507003134 56 0 2.6 5.2 0.00 0.00 0.00 88 1013.7
20260507002959 56 315 2.6 5.2 0.00 0.00 0.00 88 1013.7
20260507002837 56 315 2.6 5.2 0.00 0.00 0.00 88 1013.7
20260507002830 56 321 2.6 5.2 0.00 0.00 0.00 88 1013.7
20260507002714 56 314 2.6 4.3 0.00 0.00 0.00 88 1013.7
20260507002547 56 281 2.6 4.3 0.00 0.00 0.00 88 1013.7
20260507002503 56 306 2.6 4.3 0.00 0.00 0.00 88 1013.8
20260507002417 57 311 2.6 5.2 0.00 0.00 0.00 88 1013.7
20260507002256 57 321 1.7 5.2 0.00 0.00 0.00 88 1013.8
20260507002118 57 303 1.7 5.2 0.00 0.00 0.00 88 1013.8
20260507002111 57 290 1.7 5.2 0.00 0.00 0.00 88 1013.8
20260507001940 57 291 1.7 5.2 0.00 0.00 0.00 88 1013.7
20260507001751 57 288 1.7 5.2 0.00 0.00 0.00 88 1013.6
20260507001715 57 284 1.7 5.2 0.00 0.00 0.00 88 1013.6
20260507001408 57 286 1.7 2.6 0.00 0.00 0.00 88 1013.5
20260507001023 58 306 1.7 2.6 0.00 0.00 0.00 88 1013.5
20260507000913 58 300 0.9 2.6 0.00 0.00 0.00 88 1013.6
20260507000750 58 306 0.9 2.6 0.00 0.00 0.00 88 1013.6
20260507000346 58 300 1.7 2.6 0.00 0.00 0.00 88 1013.6
20260507000215 58 305 1.7 2.6 0.00 0.00 0.00 88 1013.6
20260507000024 58 306 0.9 2.6 0.00 0.00 0.00 88 1013.7
20260506235935 58 307 0.9 2.6 0.00 0.00 0.00 88 1013.7
20260506235736 58 302 0.9 2.6 0.00 0.00 0.00 88 1013.6
20260506235609 58 312 0.9 2.6 0.00 0.00 0.00 88 1013.7
20260506235516 58 326 0.9 2.6 0.00 0.00 0.00 88 1013.7
20260506235402 58 328 0.9 2.6 0.00 0.00 0.00 88 1013.7
20260506235232 58 314 0.9 2.6 0.00 0.00 0.00 88 1013.8
20260506234855 57 324 0.9 2.6 0.00 0.00 0.00 88 1013.9
20260506234732 57 324 0.9 1.7 0.00 0.00 0.00 88 1014.0
20260506234550 57 318 0.9 1.7 0.00 0.00 0.00 88 1014.0
20260506234514 57 315 0.0 1.7 0.00 0.00 0.00 88 1014.0
20260506234420 57 315 0.0 1.7 0.00 0.00 0.00 88 1014.0
20260506234219 57 315 0.0 1.7 0.00 0.00 0.00 87 1014.0
20260506234023 57 315 0.9 3.5 0.00 0.00 0.00 87 1014.1
20260506233952 57 315 0.9 3.5 0.00 0.00 0.00 87 1014.1
20260506233837 57 0 0.9 3.5 0.00 0.00 0.00 87 1014.0
20260506233658 57 0 1.7 3.5 0.00 0.00 0.00 87 1014.0
20260506233544 57 0 1.7 3.5 0.00 0.00 0.00 87 1014.1
20260506233423 57 337 2.6 4.3 0.00 0.00 0.00 87 1014.1
20260506233303 57 335 2.6 4.3 0.00 0.00 0.00 87 1014.1
20260506233201 57 314 2.6 4.3 0.00 0.00 0.00 87 1014.2
20260506233149 57 318 2.6 4.3 0.00 0.00 0.00 87 1014.2
20260506233012 58 318 2.6 4.3 0.00 0.00 0.00 86 1014.1
20260506232844 58 319 2.6 4.3 0.00 0.00 0.00 86 1014.1
20260506232454 58 307 3.5 4.3 0.00 0.00 0.00 86 1014.1
20260506232255 58 306 2.6 4.3 0.00 0.00 0.00 86 1014.1
20260506232116 58 304 2.6 4.3 0.00 0.00 0.00 86 1014.2
20260506232102 58 296 2.6 4.3 0.00 0.00 0.00 86 1014.2
20260506231921 58 327 2.6 4.3 0.00 0.00 0.00 85 1014.1
20260506231753 59 313 2.6 4.3 0.00 0.00 0.00 85 1014.1
20260506231653 59 296 2.6 4.3 0.00 0.00 0.00 85 1014.1
20260506231556 59 327 2.6 4.3 0.00 0.00 0.00 85 1014.1
20260506231429 59 322 2.6 4.3 0.00 0.00 0.00 85 1014.1
20260506231235 59 318 1.7 4.3 0.00 0.00 0.00 85 1014.1
20260506231203 59 317 1.7 4.3 0.00 0.00 0.00 85 1014.0
20260506231026 59 330 1.7 3.5 0.00 0.00 0.00 85 1014.0
20260506230831 59 338 1.7 3.5 0.00 0.00 0.00 85 1014.0
20260506230728 60 311 1.7 3.5 0.00 0.00 0.00 85 1014.0
20260506230616 60 317 1.7 3.5 0.00 0.00 0.00 85 1014.0
20260506230349 60 315 0.9 2.6 0.00 0.00 0.00 85 1014.0
20260506225930 60 315 0.9 2.6 0.00 0.00 0.00 85 1014.0
20260506225808 60 315 0.0 2.6 0.00 0.00 0.00 85 1013.9
20260506225559 60 315 0.0 1.7 0.00 0.00 0.00 85 1013.9
20260506225535 60 315 0.0 1.7 0.00 0.00 0.00 85 1014.0
20260506225423 60 315 0.0 0.9 0.00 0.00 0.00 85 1014.0
20260506225250 60 315 0.0 0.9 0.00 0.00 0.00 85 1013.9
20260506225120 60 315 0.0 0.9 0.00 0.00 0.00 85 1014.1
20260506225046 60 315 0.0 0.9 0.00 0.00 0.00 85 1014.1
20260506224921 60 315 0.0 0.9 0.00 0.00 0.00 85 1014.1
20260506224735 60 315 0.9 0.9 0.00 0.00 0.00 84 1014.0
20260506224722 60 316 0.9 0.9 0.00 0.00 0.00 84 1014.0
20260506224601 60 315 0.9 1.7 0.00 0.00 0.00 84 1014.0
20260506224443 60 315 0.9 1.7 0.00 0.00 0.00 84 1014.1
20260506224342 60 316 0.9 1.7 0.00 0.00 0.00 84 1014.0
20260506224254 61 315 0.9 1.7 0.00 0.00 0.00 84 1014.0
20260506224053 61 315 0.9 1.7 0.00 0.00 0.00 84 1014.0
20260506223911 61 315 0.9 1.7 0.00 0.00 0.00 84 1014.1
20260506223701 61 315 0.9 1.7 0.00 0.00 0.00 84 1014.1
20260506223552 61 315 0.9 2.6 0.00 0.00 0.00 84 1014.0
20260506223226 61 315 0.9 2.6 0.00 0.00 0.00 84 1014.0
20260506222956 61 315 0.9 2.6 0.00 0.00 0.00 84 1014.1
20260506222716 61 315 0.9 2.6 0.00 0.00 0.00 84 1014.0
20260506222331 61 315 0.9 2.6 0.00 0.00 0.00 84 1014.0
20260506222119 62 315 0.9 2.6 0.00 0.00 0.00 84 1014.0
20260506222019 62 315 0.9 2.6 0.00 0.00 0.00 84 1014.1
20260506221903 62 315 0.9 2.6 0.00 0.00 0.00 84 1014.1
20260506221716 62 315 0.9 2.6 0.00 0.00 0.00 84 1014.1
20260506221324 62 315 0.9 2.6 0.00 0.00 0.00 84 1014.2
20260506221134 62 315 0.9 2.6 0.00 0.00 0.00 84 1014.2
20260506220820 62 315 0.9 2.6 0.00 0.00 0.00 84 1014.1
20260506220729 62 315 0.9 1.7 0.00 0.00 0.00 84 1014.1
20260506220618 62 315 0.0 1.7 0.00 0.00 0.00 84 1014.1
20260506220503 62 315 0.0 1.7 0.00 0.00 0.00 84 1014.1
20260506220322 63 315 0.0 1.7 0.00 0.00 0.00 84 1014.1
20260506220243 63 315 0.0 1.7 0.00 0.00 0.00 84 1014.1
20260506220056 63 315 0.0 0.9 0.00 0.00 0.00 84 1014.0
20260506215924 63 315 0.0 0.9 0.00 0.00 0.00 84 1014.0
20260506215851 63 315 0.0 0.9 0.00 0.00 0.00 84 1014.0
20260506215748 63 315 0.0 0.9 0.00 0.00 0.00 84 1014.1
20260506215557 63 315 0.0 0.9 0.00 0.00 0.00 84 1014.1
20260506215429 63 315 0.0 0.9 0.00 0.00 0.00 84 1014.1
20260506215403 63 315 0.0 0.0 0.00 0.00 0.00 84 1014.1
20260506215126 63 315 0.0 0.0 0.00 0.00 0.00 84 1014.1
20260506214914 63 315 0.0 0.9 0.00 0.00 0.00 84 1014.1
20260506214717 63 315 0.0 1.7 0.00 0.00 0.00 84 1014.1
20260506214542 63 315 0.0 1.7 0.00 0.00 0.00 84 1014.1
20260506214435 63 315 0.0 1.7 0.00 0.00 0.00 84 1014.1
20260506214311 63 315 0.0 1.7 0.00 0.00 0.00 84 1014.0
20260506214144 63 315 0.0 1.7 0.00 0.00 0.00 84 1014.0
20260506213959 63 315 0.0 1.7 0.00 0.00 0.00 84 1014.1
20260506213755 63 315 0.0 1.7 0.00 0.00 0.00 84 1014.1
20260506213552 63 315 0.0 1.7 0.00 0.00 0.00 84 1014.1
20260506213202 63 315 0.0 1.7 0.00 0.00 0.00 84 1014.1
20260506213040 63 315 0.0 1.7 0.00 0.00 0.00 84 1014.1
20260506212834 63 315 0.0 1.7 0.00 0.00 0.00 84 1014.2
20260506212652 63 315 0.0 1.7 0.00 0.00 0.00 84 1014.2
20260506212257 63 315 0.0 1.7 0.00 0.00 0.00 84 1014.2
20260506212214 63 315 0.0 1.7 0.00 0.00 0.00 84 1014.2
20260506212108 63 315 0.0 1.7 0.00 0.00 0.00 84 1014.1
20260506211950 63 315 0.0 0.9 0.00 0.00 0.00 83 1014.2
20260506211751 63 315 0.0 0.9 0.00 0.00 0.00 83 1014.2
20260506211601 63 315 0.0 0.9 0.00 0.00 0.00 83 1014.2
20260506211427 63 315 0.0 0.9 0.00 0.00 0.00 83 1014.2
20260506211323 63 315 0.0 0.9 0.00 0.00 0.00 83 1014.2
20260506211159 63 315 0.0 0.9 0.00 0.00 0.00 83 1014.2
20260506210958 63 315 0.0 0.9 0.00 0.00 0.00 83 1014.2
20260506210823 63 315 0.0 0.9 0.00 0.00 0.00 83 1014.2
20260506210802 63 315 0.0 0.9 0.00 0.00 0.00 83 1014.2
20260506210627 63 315 0.0 0.9 0.00 0.00 0.00 83 1014.2
20260506210452 64 315 0.0 0.9 0.00 0.00 0.00 83 1014.2
20260506210022 64 315 0.0 0.9 0.00 0.00 0.00 83 1014.2
20260506205852 64 315 0.0 1.7 0.00 0.00 0.00 83 1014.2
20260506205725 64 315 0.9 2.6 0.00 0.00 0.00 83 1014.2
20260506205643 64 315 0.9 2.6 0.00 0.00 0.00 83 1014.2
20260506205428 62 307 1.7 3.5 0.00 0.00 0.00 82 1014.5
20260506205343 64 315 0.9 2.6 0.00 0.00 0.00 83 1014.3
20260506205140 64 315 0.9 2.6 0.00 0.00 0.00 83 1014.3
20260506205122 64 316 0.9 2.6 0.00 0.00 0.00 83 1014.3
20260506204955 64 315 0.9 2.6 0.00 0.00 0.00 83 1014.3
20260506204745 64 315 0.9 2.6 0.00 0.00 0.00 83 1014.4
20260506204641 64 315 0.9 2.6 0.00 0.00 0.00 83 1014.4
20260506204608 64 311 0.9 2.6 0.00 0.00 0.00 83 1014.4
20260506204402 64 300 0.9 2.6 0.00 0.00 0.00 83 1014.3
20260506204137 64 308 0.9 2.6 0.00 0.00 0.00 83 1014.4
20260506203935 64 300 0.9 2.6 0.00 0.00 0.00 83 1014.3
20260506203716 64 302 0.9 2.6 0.00 0.00 0.00 83 1014.3
20260506203618 64 302 0.9 2.6 0.00 0.00 0.00 83 1014.3
20260506203542 64 302 0.9 2.6 0.00 0.00 0.00 83 1014.2
20260506203347 64 301 0.9 2.6 0.00 0.00 0.00 83 1014.3
20260506203200 64 302 0.9 2.6 0.00 0.00 0.00 83 1014.2
20260506203130 64 302 0.9 2.6 0.00 0.00 0.00 83 1014.2
20260506203016 64 234 0.9 1.7 0.00 0.00 0.00 83 1014.3
20260506202836 64 233 0.0 1.7 0.00 0.00 0.00 82 1014.2
20260506202753 64 233 0.0 1.7 0.00 0.00 0.00 82 1014.2
20260506202714 64 234 0.0 1.7 0.00 0.00 0.00 82 1014.2
20260506202531 64 234 0.0 1.7 0.00 0.00 0.00 82 1014.2
20260506202258 64 234 0.0 1.7 0.00 0.00 0.00 82 1014.2
20260506202244 64 233 0.0 1.7 0.00 0.00 0.00 82 1014.2
20260506202112 64 234 0.0 0.9 0.00 0.00 0.00 82 1014.1
20260506201835 64 234 0.0 0.9 0.00 0.00 0.00 82 1014.2
20260506201730 64 233 0.0 0.9 0.00 0.00 0.00 82 1014.2
20260506201651 64 233 0.0 0.9 0.00 0.00 0.00 82 1014.1
20260506201256 64 233 0.0 1.7 0.00 0.00 0.00 82 1014.1
20260506201047 65 233 0.0 1.7 0.00 0.00 0.00 82 1014.1
20260506201039 65 234 0.0 1.7 0.00 0.00 0.00 82 1014.1
20260506200904 65 233 0.0 1.7 0.00 0.00 0.00 82 1014.1
20260506200737 65 234 0.0 1.7 0.00 0.00 0.00 82 1014.0
20260506200656 65 234 0.0 1.7 0.00 0.00 0.00 82 1014.0
20260506200615 65 234 0.0 1.7 0.00 0.00 0.00 82 1014.0
20260506200455 65 234 0.0 0.9 0.00 0.00 0.00 82 1014.0
20260506200219 65 234 0.0 1.7 0.00 0.00 0.00 82 1013.9
20260506195830 65 233 0.0 1.7 0.00 0.00 0.00 82 1013.9
20260506195732 54 304 0.9 2.6 0.00 0.00 0.00 89 1014.4
20260506195633 65 234 0.0 1.7 0.00 0.00 0.00 82 1014.0
20260506195539 65 233 0.9 1.7 0.00 0.00 0.00 82 1014.0
20260506195438 65 233 0.9 1.7 0.00 0.00 0.00 82 1014.0
20260506195233 65 234 0.9 1.7 0.00 0.00 0.00 82 1014.1
20260506195049 65 233 0.9 1.7 0.00 0.00 0.00 82 1014.0
20260506195036 65 234 0.9 1.7 0.00 0.00 0.00 82 1014.0
20260506194842 65 234 0.9 2.6 0.00 0.00 0.00 82 1014.0
20260506194651 65 234 0.9 2.6 0.00 0.00 0.00 82 1014.0
20260506194624 65 233 0.9 2.6 0.00 0.00 0.00 82 1014.0
20260506194529 65 198 0.9 2.6 0.00 0.00 0.00 82 1013.8
20260506194345 65 198 0.9 2.6 0.00 0.00 0.00 82 1013.9
20260506194152 65 198 0.9 2.6 0.00 0.00 0.00 82 1013.8
20260506194101 65 198 0.9 2.6 0.00 0.00 0.00 82 1013.8
20260506193851 65 210 0.0 2.6 0.00 0.00 0.00 82 1013.8
20260506193728 65 192 0.0 1.7 0.00 0.00 0.00 82 1013.7
20260506193647 65 192 0.0 1.7 0.00 0.00 0.00 82 1013.7
20260506193531 65 192 0.9 2.6 0.00 0.00 0.00 82 1013.7
20260506193337 65 192 0.9 2.6 0.00 0.00 0.00 82 1013.7
20260506193149 65 192 0.9 2.6 0.00 0.00 0.00 82 1013.7
20260506193035 65 192 0.9 2.6 0.00 0.00 0.00 82 1013.7
20260506192822 65 218 0.9 2.6 0.00 0.00 0.00 82 1013.7
20260506192627 65 202 0.9 2.6 0.00 0.00 0.00 82 1013.7
20260506192513 65 211 0.9 2.6 0.00 0.00 0.00 82 1013.7
20260506192343 65 232 0.9 2.6 0.00 0.00 0.00 82 1013.7